Hourly Data Report for May 17, 2022

TORONTO CITY
ONTARIO
Current Station Operator: ECCC - MSC

43°40'00.000" N
79°24'00.000" W
112.50 m
6158355
71508
XTO

Download Data

Hourly Data (May 2022)
Hourly Data Report for May 17, 2022
TIME
LST
Temp Definition
°C
Dew Point Definition
°C
Rel Hum Definition
%
Precip. Amount Definition
mm

Wind Dir Definition
10's deg

Wind Spd Definition
km/h
Visibility Definition
km
Stn Press Definition
kPa
Hmdx Definition


Wind Chill Definition


Weather Definition


00:00 14.0 7.9 66 0.0       99.31     LegendNANA
01:00 13.7 4.4 54 0.0       99.30     LegendNANA
02:00 12.6 3.4 53 0.0       99.33     LegendNANA
03:00 11.7 2.5 53 0.0       99.33     LegendNANA
04:00 9.3 1.7 59 0.0       99.37     LegendNANA
05:00 8.3 2.2 66 0.0       99.40     LegendNANA
06:00 8.3 2.8 68 0.0       99.48     LegendNANA
07:00 9.8 4.3 69 0.0       99.53     LegendNANA
08:00 11.9 5.0 63 0.0       99.61     LegendNANA
09:00 13.9 6.8 62 0.0       99.66     LegendNANA
10:00 14.3 4.8 53 0.0       99.70     LegendNANA
11:00 14.8 4.5 50 0.0       99.76     LegendNANA
12:00 15.6 5.3 50 0.0       99.78     LegendNANA
13:00 16.4 6.4 51 0.0       99.84     LegendNANA
14:00 16.2 4.8 47 0.0       99.86     LegendNANA
15:00 14.7 6.2 57 0.0       99.89     LegendNANA
16:00 13.3 7.7 69 0.0       99.95     LegendNANA
17:00 15.5 5.9 53 0.0       99.98     LegendNANA
18:00 15.9 4.1 45 0.0       100.00     LegendNANA
19:00 14.6 3.6 48 0.0       100.08     LegendNANA
20:00 13.5 3.8 52 0.0       100.12     LegendNANA
21:00 12.1 3.5 56 0.0       100.21     LegendNANA
22:00 11.9 3.5 56 0.0       100.23     LegendNANA
23:00 11.0 3.7 61 0.0       100.23     LegendNANA

Notes on Data Quality.

Legend

  • E = Estimated
  • M = Missing
  • NA = Not Available*
  • [empty] = Indicates an unobserved value
Date modified: